Location: Gro�sch�nbrunn
(49.5760°N, 11.8868°E)
Time: 22:07:45
(UTC+00:00)

Cosmos 2151 Rocket - Pass Details

Date: 18 September 2020
Orbit: 618 x 642 km, 82.5° (Epoch: 20 October)

Event Time Altitude Azimuth Distance (km) Brightness Sun altitude
Rises 18:44:34 0° 176° (S) 2,902 6.8 -14.5°
Reaches altitude 10° 18:46:48 10° 171° (S) 2,003 5.9 -14.8°
Maximum altitude 18:51:08 54° 95° (E) 769 3.7 -15.5°
Drops below altitude 10° 18:55:32 10° 18° (NNE) 2,034 6.3 -16.1°
Sets 18:57:50 0° 14° (NNE) 2,951 7.2 -16.5°
